Location: Heilwood
(40.6210°N, 78.9150°W)
Time: 08:34:11
(UTC-04:00)

Daily predictions for brighter satellites

Satellite Brightness Start Highest point End
(mag) Time Altitude Azimuth Time Altitude Azimuth Time Altitude Azimuth
Cosmos 1892 Rocket 3.6 20:59:01 10° S 21:03:24 65° E 21:07:50 10° NNE
ERS-1 Rocket 3.2 20:59:08 10° SSE 21:04:02 56° ENE 21:08:56 10° N
USA 234 4.2 21:00:40 10° E 21:06:40 40° NNE 21:12:39 10° NW
Envisat 3.9 21:03:34 10° SE 21:08:01 32° ENE 21:12:30 10° N
Cosmos 1110 Rocket 4.1 21:04:24 10° NNW 21:09:44 87° ENE 21:14:59 10° SSE
SJ-11-01 4.5 21:05:35 10° SSE 21:10:08 56° ENE 21:14:42 10° N
USA 186 2.5 21:10:51 10° S 21:13:39 45° W 21:16:18 10° NNW
Abrixas rocket 2.4 21:11:30 10° WNW 21:14:55 72° NNE 21:18:21 10° ESE
Meteor 2-4 Rocket 3.8 21:09:45 10° S 21:15:32 70° E 21:21:28 10° NNE
Cosmos 2333 Rocket 4.0 21:12:29 10° SW 21:17:41 37° WNW 21:22:56 10° N
Okean 2 3.4 21:13:43 10° S 21:17:51 65° E 21:22:01 10° NNE
Meteor 1-19 Rocket 4.4 21:12:19 10° S 21:17:56 83° W 21:23:34 10° N
BREEZE M DEB (TANK) 2.7 21:15:58 10° WNW 21:19:24 40° N 21:21:20 10° ENE
Cosmos 2297 3.9 21:13:55 10° NNW 21:19:38 79° WSW 21:25:21 10° SSE
FENGYUN 3A 4.4 21:21:43 10° S 21:26:58 55° W 21:32:16 10° NNW
Cosmos 1726 Rocket 4.0 21:23:06 10° NNW 21:27:31 64° W 21:31:52 10° S
H-2A R/B 4.1 21:25:49 10° S 21:29:32 40° W 21:33:18 10° NNW
YAOGAN 6 4.4 21:27:50 11° ESE 21:30:14 19° ENE 21:32:53 10° NNE
PSLV R/B 3.8 21:29:10 10° SW 21:32:30 40° SSE 21:35:51 10° E
ISS -1.9 21:30:20 10° S 21:32:45 19° SE 21:35:10 10° E
Cosmos 2285 Rocket 4.1 21:28:20 10° NNW 21:34:41 82° WSW 21:41:01 10° SSE
Cosmos 1461 3.1 21:34:44 10° NNW 21:39:01 59° NE 21:42:09 16° SE
CZ-2C R/B 2.3 21:37:25 10° SSW 21:39:28 28° W 21:41:33 10° NW
Cosmos 494 Rocket 4.4 21:34:41 10° SSW 21:39:46 66° WNW 21:44:52 10° NNE
SPOT 5 2.9 21:36:20 12° SSE 21:40:14 53° ENE 21:44:28 10° N
Cosmos 2058 Rocket 3.6 21:36:54 10° NNW 21:41:13 59° W 21:45:29 10° S
Cosmos 1464 Rocket 4.1 21:39:14 10° N 21:45:22 78° W 21:51:31 10° S
Cosmos 1602 Rocket 3.6 21:42:02 10° S 21:46:28 69° E 21:50:55 10° NNE
CZ-4 SHROUD 3.2 21:46:44 17° SSE 21:49:03 72° ENE 21:52:13 10° N
H-2A R/B 3.9 21:48:12 10° E 21:50:59 15° ENE 21:53:48 10° NNE
ALOS 4.3 21:48:32 10° SSW 21:52:23 25° W 21:56:16 10° NW
GRACE-1 3.8 21:50:26 10° N 21:53:18 69° E 21:55:07 20° S
GRACE-2 3.8 21:50:52 10° N 21:53:45 69° E 21:55:33 20° S
Aureole 2 Rocket 3.3 21:49:51 10° SSW 21:53:45 56° WNW 21:57:19 10° N
deb Chang Zheng 4 4.5 21:49:38 10° N 21:53:55 52° WNW 21:58:10 10° SSW
Cosmos 1812 Rocket 3.7 21:53:07 10° N 21:57:27 59° E 22:00:27 19° SSE
SPOT 1/Viking Rocket 4.0 21:55:42 18° SE 21:59:12 46° ENE 22:04:07 10° N
Terra 3.7 22:00:40 13° E 22:02:54 17° ENE 22:05:56 10° NNE
Cosmos 2034 Rocket 4.2 21:57:34 10° N 22:03:57 75° W 22:10:15 10° S
USA 245 4.4 22:05:43 19° SSE 22:10:00 61° ENE 22:15:13 10° N
Atlas Centaur 2 3.6 22:03:08 10° SW 22:10:03 36° SSE 22:15:35 18° ESE
H-2A R/B 3.5 22:06:17 10° SSW 22:10:06 33° W 22:14:03 10° NNW
SeaSat 1 2.5 22:07:21 19° SSE 22:10:53 76° WSW 22:15:51 10° NNW
Cosmos 2369 Rocket 3.0 22:08:03 10° N 22:13:22 39° ENE 22:16:29 22° ESE
ARGOS 3.5 22:10:34 23° SE 22:13:48 51° ENE 22:19:03 10° N
CZ-4C R/B 4.5 22:12:56 24° ESE 22:14:35 32° ENE 22:18:17 10° N
DEBRIS 2.8 22:10:39 10° WNW 22:14:53 42° SW 22:15:34 33° S
Cosmos 1666 4.3 22:13:04 10° NNW 22:16:34 32° W 22:20:03 10° SSW
CZ-4B R/B 3.4 22:12:52 10° NNE 22:17:58 78° ESE 22:22:53 12° S
PSLV R/B 4.2 22:16:10 19° SSW 22:18:01 41° W 22:20:59 10° NNW
SL-16 R/B 4.3 22:14:35 10° WSW 22:19:29 29° WNW 22:24:25 10° N
Cosmos 1626 Rocket 4.4 22:15:17 10° SSW 22:19:36 50° W 22:23:55 10° N
Cosmos 1939 Rocket 4.4 22:17:47 10° SSW 22:21:32 33° W 22:25:19 10° NNW
NOAA 11 4.3 22:22:44 27° SE 22:25:40 59° ENE 22:31:00 10° N
Milstar 3 Cent rocket 4.2 22:24:04 10° SW 22:26:18 12° SSW 22:27:55 11° SSW
COSMOS 2455 2.8 22:21:00 10° SSW 22:27:01 87° ESE 22:33:04 10° NNE
Meteor 2-12 Rocket 4.4 22:22:17 10° N 22:28:24 87° W 22:32:34 21° S
MetOp-B 4.4 22:28:00 20° S 22:31:46 65° WSW 22:37:07 10° NNW
Cosmos 1953 4.3 22:31:39 10° NE 22:34:04 15° ENE 22:34:19 15° ENE
Cosmos 1953 Rocket 3.7 22:35:33 38° SSE 22:36:56 56° E 22:41:17 10° NNE
ATLAS 3B R/B 3.0 22:29:48 10° SSW 22:37:16 56° ESE 22:44:37 10° NE
Meteor 1-22 Rocket 4.4 22:32:02 10° N 22:37:32 58° ENE 22:40:02 32° SE
Cosmos 2346 Rocket 4.4 22:36:44 21° S 22:41:08 82° E 22:47:18 10° N
IGS 5A 4.3 22:43:56 31° E 22:44:38 34° ENE 22:48:24 10° N
Cosmos 1515 4.4 22:43:53 22° SSW 22:46:09 52° W 22:49:56 10° N
Cosmos 1066 Rocket 4.2 22:43:48 23° S 22:47:31 89° E 22:53:21 10° N
USA 234 3.3 22:45:57 31° SSE 22:49:22 72° SW 22:55:57 10° NW
Cosmos 407 Rocket 3.5 22:49:25 36° S 22:51:28 62° ESE 22:56:39 10° NNE
Abrixas rocket 4.4 22:49:26 10° W 22:51:25 17° SW 22:51:25 17° SW
Cosmos 1346 Rocket 2.6 22:56:00 56° SSW 22:56:45 88° W 23:00:42 10° N
DELTA 2 DEB (DPAF) 4.1 22:56:14 46° S 22:57:33 82° WSW 23:02:05 10° NNW
Cosmos-2242 3.8 22:53:52 10° N 22:57:59 37° ENE 22:58:21 36° E
SL-23 DEB 4.4 22:52:07 10° SW 22:58:09 49° SE 22:58:26 49° SE
Lacrosse 4 Rocket 1.2 22:59:11 65° SE 22:59:20 66° ESE 23:03:24 10° NNE
YAOGAN 6 4.3 23:02:20 22° SW 23:03:38 28° W 23:06:53 10° NW
ISS -2.3 23:05:49 10° WSW 23:08:58 46° NNW 23:12:08 10° NE
BREEZE-M DEB (TANK) 4.1 23:06:56 10° W 23:09:14 24° NNW 23:09:51 21° N
PSLV R/B 3.7 23:06:27 10° W 23:09:23 58° W 23:09:23 58° W
Cosmos 1954 Rocket 4.2 23:09:47 49° SE 23:10:30 52° ESE 23:15:39 10° NNE
Cosmos 1758 Rocket 3.6 23:10:06 48° SSW 23:11:14 74° W 23:15:37 10° N
USA 238 DEB 4.2 23:10:57 38° SE 23:12:01 40° ESE 23:18:29 10° NE
USA 238 4.2 23:11:06 37° SE 23:12:06 39° ESE 23:18:33 10° NE
Cosmos 1943 3.6 23:07:20 12° SW 23:12:37 64° WNW 23:18:18 10° NNE
Cosmos 1842 3.4 23:13:33 62° ENE 23:13:33 62° ENE 23:17:10 10° NNE
Meteor 1-21 4.2 23:11:19 39° S 23:13:37 87° E 23:19:28 10° N
CARTOSAT-1 3.4 23:14:29 68° S 23:15:02 89° W 23:19:23 10° NNW
Cosmos 1758 3.9 23:15:15 10° N 23:19:02 47° ENE 23:19:02 47° ENE
Cosmos 1943 Rocket 2.5 23:16:46 10° NNW 23:22:13 55° ENE 23:23:31 44° ESE
Spot 4 3.7 23:22:16 65° SSE 23:22:58 83° ENE 23:27:46 10° NNW
Spot 2 4.3 23:19:26 10° NNE 23:24:13 86° WNW 23:25:25 53° SSW
Landsat 7 4.3 23:23:17 43° SW 23:24:24 53° W 23:29:04 10° NNW
H-2A R/B 2.1 23:28:49 52° SSW 23:29:48 66° WSW 23:34:50 10° NNW
SAR-Lupe-2 4.4 23:30:47 44° W 23:30:47 44° W 23:33:57 10° NNW
Cosmos 1092 Rocket 4.3 23:33:02 44° ESE 23:34:05 48° E 23:40:06 10° NNE
Cosmos 1766 3.9 23:30:24 10° NNW 23:34:17 49° W 23:34:21 49° W
Terra 2.2 23:39:33 49° SW 23:40:12 53° W 23:44:52 10° NNW
Cosmos 1842 Rocket 3.9 23:37:34 10° N 23:41:34 55° ENE 23:41:34 55° ENE
Cosmos 1570 Rocket 4.2 23:37:37 10° N 23:42:55 57° ENE 23:43:34 53° E
Cosmos 1850 Rocket 4.2 23:46:11 54° E 23:46:11 54° E 23:51:01 10° NNE
Nadezhda 4 Rocket 3.9 23:45:01 55° S 23:46:33 82° E 23:52:55 10° N
CZ-4C R/B 3.9 23:54:53 18° E 23:54:53 18° E 23:57:07 10° ENE
